Location: Les B�daures
(46.6336°N, 3.3463°E)
Time: 22:17:33
(UTC+00:00)

Daily predictions for brighter satellites

Satellite Brightness Start Highest point End
(mag) Time Altitude Azimuth Time Altitude Azimuth Time Altitude Azimuth
Cosmos 1908 Rocket 3.7 19:55:30 10° N 19:59:56 64° E 20:04:20 10° SSE
STARLINK-1162 3.7 19:59:02 10° WNW 20:03:09 71° SW 20:07:17 10° SE
STARLINK-1115 4.4 20:01:18 10° WNW 20:05:20 47° NNE 20:09:21 10° E
Cosmos 1833 Rocket 4.0 20:00:43 10° N 20:05:31 28° NE 20:10:18 10° ESE
Cosmos 1975 3.6 20:04:30 10° N 20:08:19 36° ENE 20:12:03 10° SE
STARLINK-1201 4.5 20:05:00 10° SSW 20:08:32 28° SE 20:12:05 10° ENE
Tsikada Rocket 4.1 20:03:37 10° S 20:09:39 57° E 20:15:42 10° NNE
Resurs 1-3 3.8 20:05:44 10° S 20:10:06 74° WSW 20:14:31 10° NNW
STARLINK-1076 4.4 20:06:17 10° WNW 20:10:20 49° NNE 20:14:22 10° E
Spot 2 Rocket 4.1 20:05:45 10° SE 20:10:28 42° ENE 20:15:12 10° N
STARLINK-1159 3.9 20:09:01 10° WNW 20:13:08 61° SW 20:17:12 10° SE
CZ-2C R/B 2.9 20:07:34 10° NNE 20:13:12 87° WNW 20:18:49 10° SSW
STARLINK-1206 4.4 20:09:51 10° SSW 20:13:28 30° SE 20:17:07 10° ENE
STARLINK-1092 4.3 20:11:15 10° WNW 20:15:19 52° NNE 20:19:23 10° E
CZ-2C R/B 4.0 20:11:29 10° N 20:15:55 71° WNW 20:20:23 10° SSW
Cosmos 2346 Rocket 4.5 20:10:33 10° S 20:16:37 83° E 20:22:47 10° N
Cosmos 389 Rocket 2.4 20:13:29 10° S 20:16:55 73° E 20:20:24 10° NNE
STARLINK-1171 4.0 20:14:02 10° WNW 20:18:06 56° SW 20:22:00 11° SE
Cosmos 2056 Rocket 4.0 20:13:31 10° S 20:18:15 39° ESE 20:22:59 10° NE
Cosmos 2242 Rocket 3.7 20:13:53 10° S 20:18:18 84° W 20:22:43 10° N
STARLINK-1205 4.3 20:14:43 10° SSW 20:18:25 33° SE 20:22:09 10° ENE
SL-4 R/B 4.0 20:17:37 10° NNE 20:18:31 11° NE 20:19:26 10° NE
Okean 1 3.3 20:15:15 10° S 20:19:16 70° E 20:23:19 10° NNE
STARLINK-1080 4.2 20:16:16 10° WNW 20:20:21 54° NNE 20:24:26 10° E
STARLINK-1155 4.1 20:19:02 10° WNW 20:23:04 52° SW 20:26:47 12° SE
ISS -2.1 20:20:11 10° WNW 20:23:18 33° N 20:26:25 10° ENE
STARLINK-1218 4.2 20:19:35 10° SSW 20:23:22 35° SE 20:27:09 10° ENE
Cosmos 909 Rocket 4.5 20:16:28 10° NW 20:24:43 83° NE 20:31:07 11° SE
STARLINK-1090 4.1 20:21:14 10° WNW 20:25:20 57° NNE 20:29:26 10° ESE
Meteor 1-19 Rocket 4.3 20:21:28 10° S 20:26:55 59° E 20:32:34 10° NNE
Cosmos 44 Rocket 4.0 20:22:39 10° NW 20:27:21 49° WSW 20:32:08 10° SSE
STARLINK-1166 4.2 20:24:01 10° WNW 20:28:01 48° SW 20:31:33 13° SE
STARLINK-1254 4.1 20:24:28 10° SSW 20:28:19 38° SE 20:32:11 10° ENE
SL-8 R/B 3.7 20:24:45 10° WSW 20:29:33 86° SSE 20:34:24 10° ENE
STARLINK-1089 4.0 20:26:13 10° WNW 20:30:20 60° NNE 20:34:26 10° ESE
Cosmos 2278 Rocket 2.9 20:26:12 10° SSE 20:31:10 33° ESE 20:36:11 10° NE
STARLINK-1165 4.3 20:29:02 10° WNW 20:32:59 44° SW 20:36:21 14° SSE
STARLINK-1231 4.0 20:29:24 10° SSW 20:33:18 42° SE 20:37:13 10° ENE
Cosmos 1356 3.4 20:30:37 10° N 20:34:05 88° ENE 20:37:23 11° S
STARLINK-1107 3.9 20:31:11 10° WNW 20:35:19 64° NNE 20:39:14 11° ESE
Meteor 1-18 Rocket 4.2 20:30:53 10° S 20:36:26 82° E 20:42:06 10° NNE
STARLINK-1169 4.4 20:34:02 10° WNW 20:37:56 41° SW 20:41:08 14° SSE
STARLINK-1232 3.9 20:34:18 10° SSW 20:38:15 45° SE 20:42:13 10° ENE
Lacrosse 5 3.0 20:34:33 10° NW 20:39:17 38° NNE 20:44:01 10° E
NOSS 2-3 (E) 3.6 20:35:20 10° SSW 20:39:31 61° ESE 20:44:26 10° NE
STARLINK-1066 3.9 20:36:11 10° WNW 20:40:19 67° NNE 20:44:02 13° ESE
Cosmos 1844 Rocket 3.7 20:36:07 10° SW 20:41:39 52° WNW 20:47:11 10° NNE
Terra 3.1 20:38:31 12° ESE 20:42:00 27° ENE 20:45:57 10° N
STARLINK-1208 3.8 20:39:12 10° SW 20:43:11 49° SE 20:47:13 10° ENE
STARLINK-1228 3.4 20:40:39 10° WSW 20:43:57 66° NNW 20:47:15 10° ENE
STARLINK-1081 3.8 20:41:10 10° WNW 20:45:19 71° NNE 20:48:49 14° ESE
STARLINK-1234 3.3 20:44:28 10° WSW 20:47:33 63° NNW 20:50:41 10° ENE
IGS 5A 3.5 20:44:11 14° SSE 20:47:41 72° ENE 20:51:50 10° N
STARLINK-1271 3.7 20:44:09 10° SW 20:48:10 53° SE 20:52:13 10° ENE
STARLINK-1212 2.9 20:45:48 10° WSW 20:48:55 80° NNW 20:52:01 10° ENE
STARLINK-1209 3.5 20:46:14 10° WSW 20:49:20 59° NNW 20:52:27 10° NE
STARLINK-1105 2.9 20:46:17 10° WSW 20:49:22 79° NNW 20:52:29 10° ENE
Cosmos 2084 Rocket 4.3 20:46:04 10° WSW 20:50:15 54° NW 20:54:34 10° NNE
STARLINK-1070 3.7 20:46:07 10° WNW 20:50:17 76° NNE 20:53:35 16° ESE
STARLINK-1247 3.0 20:47:11 10° WSW 20:50:18 78° NNW 20:53:25 10° ENE
STARLINK-1227 3.0 20:47:39 10° WSW 20:50:45 77° NNW 20:53:52 10° ENE
Cosmos 1515 3.7 20:46:56 10° S 20:50:45 85° W 20:54:35 10° N
Cosmos 1300 Rocket 4.1 20:47:09 10° N 20:51:26 44° ENE 20:54:26 18° SE
Okean 3 3.8 20:47:57 13° SSE 20:51:34 50° E 20:55:45 10° NNE
STARLINK-1226 3.0 20:48:30 10° WSW 20:51:36 76° NNW 20:54:44 10° ENE
Crew Dragon 2.3 20:50:15 10° NW 20:52:01 22° N 20:53:53 10° ENE
STARLINK-1215 3.0 20:49:26 10° WSW 20:52:33 75° NNW 20:55:41 10° ENE
Cosmos 407 Rocket 3.9 20:47:43 10° NNW 20:53:00 65° WSW 20:57:50 12° S
STARLINK-1154 3.6 20:49:05 10° SW 20:53:09 57° SE 20:57:13 10° ENE
USA 245 2.9 20:50:56 15° SSE 20:54:03 83° WSW 20:57:08 10° NNW
STARLINK-1217 3.1 20:51:13 10° WSW 20:54:19 73° NNW 20:57:26 10° ENE
STARLINK-1229 3.1 20:52:08 10° WSW 20:55:14 71° NNW 20:58:22 10° ENE
STARLINK-1069 3.6 20:51:05 10° WNW 20:55:15 81° NNE 20:58:21 17° ESE
Cosmos 1420 Rocket 4.4 20:51:01 10° S 20:55:56 44° ESE 21:00:51 10° NE
STARLINK-1270 3.1 20:53:00 10° WSW 20:56:06 70° NNW 20:59:13 10° ENE
Cosmos 724 4.5 20:50:43 10° NW 20:56:35 71° WSW 21:01:20 17° SSE
STARLINK-1189 3.2 20:54:51 10° WSW 20:57:57 68° NNW 21:01:03 10° ENE
STARLINK-1197 3.6 20:54:01 10° SW 20:58:06 62° SE 21:02:12 10° ENE
Cosmos 2221 Rocket 3.8 20:54:39 14° S 20:58:26 57° E 21:02:54 10° NNE
STARLINK-1188 3.2 20:55:43 10° WSW 20:58:49 67° NNW 21:01:56 10° ENE
Okean 1-7 3.8 20:54:42 10° SSW 20:58:53 52° WNW 21:03:04 10° N
NOSS 2-3 (D) 3.6 20:55:10 10° SW 20:59:25 82° SE 21:04:28 10° NE
STARLINK-1235 3.6 20:56:29 10° WSW 20:59:32 55° NNW 21:02:35 10° NE
STARLINK-1187 3.4 20:56:53 10° WSW 20:59:56 60° NNW 21:03:00 10° NE
STARLINK-1085 3.6 20:56:05 10° WNW 21:00:15 86° NNE 21:03:10 19° ESE
STARLINK-1191 3.3 20:58:13 10° WSW 21:01:17 64° NNW 21:04:23 10° ENE
COSMOS 2406 3.3 20:55:45 10° NNW 21:01:34 84° WSW 21:05:59 18° SSE
STARLINK-1221 3.3 20:59:06 10° WSW 21:02:10 63° NNW 21:05:15 10° ENE
Cosmos 371 Rocket 4.0 21:00:02 18° SSE 21:02:55 33° ESE 21:07:16 10° NE
STARLINK-1198 3.5 20:58:56 10° SW 21:03:02 67° SE 21:07:10 10° ENE
STARLINK-1222 3.3 20:59:58 10° WSW 21:03:03 63° NNW 21:06:08 10° NE
STARLINK-1214 3.4 21:00:54 10° WSW 21:03:59 62° NNW 21:07:04 10° NE
Resurs 01 Rocket 3.3 21:00:42 10° SSW 21:04:38 30° W 21:08:36 10° NNW
Meteor 2-4 Rocket 3.6 20:59:21 10° S 21:04:43 75° E 21:10:04 10° NNE
STARLINK-1086 3.6 21:01:04 10° WNW 21:05:14 89° SSW 21:07:57 21° ESE
USA 215 4.0 21:00:01 10° E 21:06:15 49° NNE 21:12:29 10° NW
Abrixas rocket 2.1 21:03:23 10° W 21:06:20 72° N 21:09:17 10° ENE
SPOT 1/Viking Rocket 3.5 21:02:31 16° SSE 21:06:42 89° WSW 21:11:54 10° NNW
CREW DRAGON DEMO-1 DEB 3.9 21:05:08 10° WNW 21:07:57 32° SW 21:09:01 25° S
STARLINK-1199 3.5 21:03:56 10° SW 21:08:03 72° SSE 21:12:11 10° ENE
STARLINK-1095 3.5 21:06:02 10° WNW 21:10:12 84° SSW 21:12:43 23° SE
Sich 1 Rocket 4.0 21:05:40 10° NNW 21:10:14 65° W 21:14:02 15° S
USA 229 DEB 4.3 21:03:52 10° SW 21:10:20 59° NW 21:17:12 10° NE
USA 229 4.3 21:03:59 10° SW 21:10:26 60° NW 21:17:18 10° NE
Meteor 1-4 Rocket 2.9 21:07:23 10° SSW 21:10:47 59° WNW 21:14:13 10° N
STARLINK-1210 3.5 21:08:52 10° SW 21:13:00 78° SE 21:17:09 10° ENE
NOSS 3 (A) 4.4 21:13:41 28° S 21:14:48 51° SE 21:17:38 10° NE
STARLINK-1077 3.6 21:11:01 10° WNW 21:15:10 78° SSW 21:17:29 25° SE
SPOT 5 3.1 21:12:28 21° SSE 21:15:56 73° ENE 21:21:14 10° N
Cosmos 1624 Rocket 4.5 21:12:19 10° SSW 21:17:36 65° WNW 21:22:56 10° NNE
STARLINK-1219 3.5 21:13:50 10° SW 21:17:58 83° SSE 21:22:08 10° ENE
NOSS 3-1 (C) 4.5 21:13:03 10° WSW 21:18:29 48° NW 21:24:50 10° NE
NOSS 3-1 (A) 3.7 21:13:48 10° SW 21:19:20 68° NW 21:25:49 10° NE
STARLINK-1075 3.6 21:16:00 10° WNW 21:20:09 73° SSW 21:22:16 27° SE
STARLINK-1211 3.5 21:18:48 10° WSW 21:22:56 89° SSE 21:27:06 10° ENE
Cosmos 2279 Rocket 4.0 21:17:42 10° N 21:24:00 90° ENE 21:28:35 19° S
Aureole 1 Rocket 4.3 21:21:04 10° NW 21:24:53 38° WSW 21:28:42 15° S
STARLINK-1093 3.6 21:21:01 10° WNW 21:25:08 68° SW 21:27:04 30° SE
Cosmos 1140 Rocket 4.3 21:21:57 10° NNW 21:26:51 44° WSW 21:30:41 16° S
STARLINK-1071 4.4 21:23:15 10° WNW 21:27:18 48° NNE 21:30:40 14° E
Okean 2 Rocket 3.3 21:22:58 10° NNW 21:27:24 69° W 21:30:14 21° S
STARLINK-1245 3.6 21:23:47 10° WSW 21:27:56 86° NNW 21:32:06 10° ENE
STARLINK-1074 3.7 21:26:00 10° WNW 21:30:06 63° SW 21:31:50 32° SE
NOSS 2-3 (C) 4.4 21:26:02 10° SW 21:30:18 57° NW 21:35:27 10° NE
STARLINK-1110 4.4 21:27:27 10° WNW 21:31:31 50° NNE 21:34:41 16° E
BREEZE-M DEB (TANK) 4.1 21:15:11 10° WNW 21:31:48 87° NNE 21:35:38 18° ESE
STARLINK-1203 4.3 21:32:36 31° SE 21:32:38 31° SE 21:36:22 10° ENE
STARLINK-1233 3.7 21:28:46 10° WSW 21:32:54 81° NNW 21:37:04 10° ENE
ERBS 2.3 21:32:41 28° SSW 21:34:05 52° SE 21:37:20 10° ENE
STARLINK-1143 4.4 21:35:45 31° SE 21:35:45 31° SE 21:39:06 10° ENE
Cosmos 1850 Rocket 4.2 21:30:19 10° NNW 21:35:39 63° ENE 21:38:31 27° SE
STARLINK-1124 4.3 21:33:13 10° WNW 21:37:18 53° NNE 21:40:13 18° E
STARLINK-1204 3.7 21:33:46 10° WSW 21:37:54 76° NNW 21:42:04 10° ENE
STARLINK-1088 3.9 21:35:58 10° WNW 21:40:00 54° SW 21:41:24 35° SSE
STARLINK-1241 4.2 21:40:29 34° SE 21:40:29 34° SE 21:44:08 10° ENE
Cosmos 2151 Rocket 3.7 21:35:54 10° NNW 21:40:26 73° W 21:42:53 27° S
Cosmos 2082 Rocket 2.2 21:35:24 10° NNW 21:41:10 81° ENE 21:44:18 28° SSE
STARLINK-1122 4.2 21:38:12 10° WNW 21:42:18 56° NNE 21:45:00 20° E
STARLINK-1238 3.8 21:38:43 10° WSW 21:42:51 72° NNW 21:47:01 10° ENE
ERS-1 Rocket 3.4 21:40:28 21° S 21:43:42 56° W 21:48:40 10° NNW
STARLINK-1115 4.0 21:40:57 10° WNW 21:44:58 49° SW 21:46:10 37° S
Okean 1 Rocket 3.3 21:40:39 10° N 21:45:06 59° ENE 21:46:51 34° SE
STARLINK-1239 4.1 21:45:15 37° SE 21:45:18 37° SE 21:49:08 10° ENE
SeaSat 1 2.9 21:41:53 10° NE 21:46:35 42° ESE 21:48:18 31° SSE
STARLINK-1126 4.1 21:43:08 10° WNW 21:47:15 59° NNE 21:49:45 22° E
STARLINK-1201 3.9 21:43:45 10° WSW 21:47:52 68° NNW 21:52:01 10° ENE
Cosmos 1833 Rocket 3.1 21:44:19 10° NW 21:49:48 56° WSW 21:52:51 26° S
STARLINK-1076 4.1 21:45:58 10° WNW 21:49:56 46° SW 21:50:57 37° S
STARLINK-1240 4.0 21:50:03 40° SSE 21:50:16 40° SE 21:54:10 10° ENE
Aureole 2 Rocket 3.7 21:51:13 24° E 21:51:13 24° E 21:53:08 10° NE
Cosmos 304 Rocket 4.1 21:50:10 34° SSE 21:51:40 45° ESE 21:56:14 10° NNE
SL-4 R/B 1.1 21:49:01 10° NNW 21:52:13 87° WSW 21:52:33 69° SSE
STARLINK-1082 4.0 21:48:10 10° WNW 21:52:17 62° NNE 21:54:35 25° E
Cosmos 1805 4.0 21:48:46 10° N 21:52:29 39° ENE 21:53:26 33° ESE
STARLINK-1206 4.0 21:48:44 10° WSW 21:52:51 64° NNW 21:56:59 10° ENE
Meteor 1-15 Rocket 4.3 21:46:56 10° N 21:52:54 83° E 21:56:04 29° SSE
EO 1 Del DPAF 4.4 21:50:16 10° NE 21:53:32 27° E 21:53:37 27° E
STARLINK-1092 4.2 21:50:57 10° WNW 21:54:52 42° SW 21:55:44 37° S
Cosmos 1092 Rocket 4.4 21:52:20 28° SE 21:55:07 46° E 22:00:56 10° NNE
STARLINK-1216 3.9 21:54:49 42° SSE 21:55:13 44° SE 21:59:10 10° ENE
Cosmos 332 Rocket 3.7 21:52:44 26° S 21:55:31 75° ESE 22:00:26 10° NNE
STARLINK-1100 3.9 21:53:08 10° WNW 21:57:16 66° NNE 21:59:21 28° E
Cosmos 2369 Rocket 3.9 21:57:13 15° ESE 21:57:39 16° E 22:00:51 10° ENE
STARLINK-1205 4.1 21:53:45 10° WSW 21:57:51 60° NNW 22:01:58 10° ENE
STARLINK-1080 4.3 21:56:00 10° WNW 21:59:52 39° SW 22:00:32 36° SSW
STARLINK-1237 3.8 21:59:35 44° S 22:00:11 47° SE 22:04:11 10° ENE
ISS -3.6 21:57:05 10° WNW 22:00:27 69° NNE 22:01:21 44° E
Cosmos 1066 Rocket 4.0 21:58:18 29° S 22:01:12 78° E 22:06:35 10° NNE
STARLINK-1083 3.8 21:58:06 10° WNW 22:02:15 70° NNE 22:04:07 31° ESE
STARLINK-1218 4.2 21:58:44 10° WSW 22:02:49 57° NNW 22:06:56 10° ENE
Cosmos 1378 3.4 22:02:30 46° ESE 22:02:57 48° E 22:06:33 10° NNE
STARLINK-1090 4.4 22:01:00 10° WNW 22:04:49 36° SW 22:05:19 34° SSW
STARLINK-1202 3.7 22:04:22 44° S 22:05:09 51° SE 22:09:11 10° ENE
STARLINK-1125 3.7 22:03:05 10° WNW 22:07:14 74° NNE 22:08:54 35° ESE
STARLINK-1254 4.3 22:03:46 10° W 22:07:51 54° NNW 22:11:55 10° ENE
Cosmos 1943 Rocket 3.3 22:07:36 25° ESE 22:08:19 25° ESE 22:12:49 10° NE
Cosmos 1331 Rocket 4.3 22:07:06 36° SSE 22:08:34 46° ESE 22:13:30 10° NNE
STARLINK-1089 4.5 22:06:02 10° WNW 22:09:46 33° SW 22:10:06 32° SSW
STARLINK-1109 3.6 22:08:03 10° WNW 22:12:13 79° NNE 22:13:41 39° ESE
SL-8 R/B 3.9 22:07:28 10° W 22:12:16 70° N 22:17:06 10° E
STARLINK-1231 4.4 22:08:48 10° W 22:12:51 52° NNW 22:16:55 10° ENE
Cosmos 1437 Rocket 3.5 22:12:22 26° SW 22:14:08 46° WNW 22:17:49 10° N
STARLINK-1246 3.5 22:13:53 41° SSW 22:15:04 60° SE 22:19:10 10° ENE
Cosmos 2278 Rocket 3.3 22:09:42 10° SW 22:15:06 44° NW 22:20:33 10° NNE
STARLINK-1091 3.6 22:13:01 10° WNW 22:17:12 83° NNE 22:18:28 44° ESE
Terra 2.7 22:17:24 25° SSW 22:19:34 40° W 22:24:04 10° NNW
STARLINK-1224 3.5 22:18:39 39° SSW 22:20:01 65° SE 22:24:09 10° ENE
ALOS 2 4.0 22:19:22 23° E 22:20:48 28° ENE 22:24:34 10° N
STARLINK-1072 3.5 22:18:01 10° WNW 22:22:11 89° NE 22:23:15 49° ESE
Lacrosse 5 1.9 22:17:31 10° NW 22:22:32 65° SW 22:24:01 43° SSE
Spot 4 4.0 22:23:24 40° SE 22:25:01 63° ENE 22:29:51 10° N
STARLINK-1225 3.4 22:23:26 36° SW 22:25:01 71° SE 22:29:09 10° ENE
Crew Dragon 2.9 22:23:43 10° WNW 22:24:19 17° WNW 22:24:19 17° WNW
Thor Agena Rocket 3.6 22:20:50 10° NNE 22:26:09 71° ESE 22:28:05 39° S
STARLINK-1096 3.5 22:23:01 10° WNW 22:27:11 86° SSW 22:28:03 55° SE
STARLINK-1230 3.4 22:28:13 33° SW 22:29:59 76° SSE 22:34:08 10° ENE
BREEZE-M DEB (TANK) 3.5 22:15:52 10° WSW 22:30:40 84° SSE 22:34:29 10° ENE
SL-4 R/B 3.4 22:31:54 16° NNE 22:31:54 16° NNE 22:32:40 10° NNE
NOSS 8 (F) 4.4 22:31:10 64° WNW 22:31:22 67° NW 22:34:24 10° NE
STARLINK-1079 3.5 22:27:58 10° WNW 22:32:07 80° SSW 22:32:47 61° SE
EXPRESS MD2 4.0 22:30:08 18° SW 22:33:12 72° SSE 22:41:30 10° ENE
Cosmos 1544 Rocket 4.3 22:29:38 10° N 22:33:44 40° ENE 22:34:36 35° ESE
STARLINK-1243 3.4 22:32:59 30° SW 22:34:57 81° SSE 22:39:07 10° ENE
STARLINK-1116 3.5 22:32:58 10° WNW 22:37:07 75° SSW 22:37:36 65° SSE
Cosmos 1766 3.3 22:33:54 10° NNW 22:37:52 71° W 22:38:27 59° SSW
SL-27 R/B 3.9 22:35:54 10° N 22:39:05 28° ENE 22:39:37 27° ENE
STARLINK-1236 3.5 22:37:45 27° WSW 22:39:56 87° SSE 22:44:06 10° ENE
Abrixas rocket 3.0 22:39:04 10° WNW 22:41:15 42° NW 22:41:15 42° NW
Cosmos 1953 4.2 22:39:57 10° NNE 22:42:55 20° ENE 22:43:45 18° E
Cosmos 1553 Rocket 4.4 22:36:44 10° N 22:42:58 55° ENE 22:45:31 34° SE
Cosmos 1461 2.8 22:43:04 55° SSW 22:43:56 86° SE 22:48:19 10° NE
Cosmos 1271 Rocket 4.0 22:46:32 28° E 22:46:32 28° E 22:49:41 10° NNE
STARLINK-1094 3.5 22:42:57 10° WNW 22:47:04 65° SW 22:47:09 64° SSW
Cosmos 2026 Rocket 3.9 22:45:54 37° S 22:48:33 85° E 22:54:55 10° N
USA 215 3.2 22:45:48 32° SE 22:49:04 75° SW 22:55:38 10° NW
STARLINK-1102 4.4 22:45:14 10° WNW 22:49:17 50° NNE 22:51:45 21° E
STARLINK-1269 3.6 22:47:16 22° WSW 22:49:52 83° NNW 22:54:02 10° ENE
Aureole 3 Rocket 4.0 22:46:03 10° N 22:51:16 69° E 22:54:05 37° SSE
Cosmos 1758 3.9 22:47:43 10° N 22:51:36 43° ENE 22:52:04 41° E
STARLINK-1117 3.6 22:47:56 10° WNW 22:51:56 60° SW 22:51:56 60° SW
Cosmos 1707 3.9 22:53:56 31° E 22:53:56 31° E 22:57:19 10° NNE
STARLINK-1111 4.3 22:50:12 10° WNW 22:54:16 52° NNE 22:56:31 24° E
STARLINK-1200 3.6 22:52:04 20° WSW 22:54:52 78° NNW 22:59:02 10° ENE
STARLINK-1078 3.8 22:52:55 10° WNW 22:56:42 54° SW 22:56:42 54° SW
NOSS 2-2 (D) 3.1 22:57:13 73° E 22:57:13 73° E 23:00:59 10° NE
Cosmos 1733 3.5 22:53:25 10° NNW 22:57:10 53° W 22:57:26 52° WSW
STARLINK-1073 4.2 22:55:11 10° WNW 22:59:16 55° NNE 23:01:18 27° E
STARLINK-1192 3.7 22:56:50 18° WSW 22:59:51 73° NNW 23:04:01 10° ENE
NOSS 3-2 (C) 4.5 22:52:55 10° NW 23:00:12 58° NE 23:07:07 15° ESE
STARLINK-1108 4.0 22:57:55 10° WNW 23:01:30 48° WSW 23:01:30 48° WSW
Cosmos 1975 Rocket 3.3 23:00:54 47° SW 23:01:59 63° W 23:06:25 10° N
STARLINK-1121 4.1 23:00:08 10° WNW 23:04:14 58° NNE 23:06:04 30° E
STARLINK-1244 3.8 23:01:35 16° WSW 23:04:50 69° NNW 23:08:59 10° ENE
STARLINK-1071 4.2 23:02:55 10° WNW 23:06:17 43° WSW 23:06:17 43° WSW
STARLINK-1106 4.0 23:05:07 10° WNW 23:09:15 61° NNE 23:10:51 34° E
STARLINK-1138 3.9 23:06:22 14° WSW 23:09:49 65° NNW 23:13:58 10° ENE
NOSS 3-4 (A) 4.5 23:10:07 26° ESE 23:10:30 26° ESE 23:15:29 10° ENE
ERBS 4.5 23:07:42 10° W 23:10:33 26° NNW 23:13:26 10° NE
NOSS 3-4 (C) 4.5 23:10:13 25° ESE 23:10:37 26° ESE 23:15:35 10° ENE
STARLINK-1110 4.4 23:07:08 10° WNW 23:10:18 39° WSW 23:10:18 39° WSW
Cosmos 2297 4.4 23:07:18 20° SW 23:11:08 52° WNW 23:16:44 10° NNE
Cosmos 1242 Rocket 2.5 23:11:36 77° NE 23:11:36 77° NE 23:15:06 10° NNE
STARLINK-1203 4.0 23:08:11 11° WSW 23:12:15 63° NNW 23:16:26 10° ENE
Meteor 2-10 4.5 23:07:31 10° N 23:12:28 49° ENE 23:13:53 38° ESE
STARLINK-1112 3.9 23:10:07 10° WNW 23:14:15 64° NNE 23:15:39 38° E
STARLINK-1143 4.0 23:11:10 13° WSW 23:14:49 62° NNW 23:18:56 10° ENE
NOSS 2-2 (E) 3.7 23:15:11 45° W 23:16:01 58° NW 23:20:06 10° NE
ATLAS 3B R/B 4.0 23:09:53 10° NNW 23:16:02 36° NE 23:22:20 10° E
Cosmos 2266 Rocket 4.4 23:16:09 36° SE 23:18:06 48° E 23:23:54 10° NNE
STARLINK-1128 3.8 23:15:06 10° WNW 23:19:14 68° NNE 23:20:25 44° E
ATLAS CENTAUR R/B 3.9 23:20:47 11° E 23:20:47 11° E 23:21:04 10° E
STARLINK-1241 4.1 23:15:53 11° WSW 23:19:48 58° NNW 23:23:55 10° ENE
CENTAUR R/B 3.5 23:12:25 10° NW 23:20:19 65° NE 23:27:41 16° SE
Cosmos 1470 2.6 23:16:41 10° NNW 23:20:34 76° W 23:20:37 76° WSW
SeaSat 1 3.9 23:19:35 10° NNE 23:23:59 33° NW 23:28:04 12° WSW
STARLINK-1113 3.7 23:20:04 10° WNW 23:24:13 73° NNE 23:25:11 50° E
Cosmos 2082 Rocket 4.1 23:21:02 10° WNW 23:24:30 17° W 23:26:09 15° WSW
STARLINK-1239 4.2 23:20:43 10° WSW 23:24:47 55° NNW 23:28:53 10° ENE
BREEZE-M DEB 3.9 23:25:35 10° W 23:29:01 76° N 23:41:08 10° ENE
STARLINK-1119 3.6 23:25:03 10° WNW 23:29:12 77° NNE 23:29:58 57° E
STARLINK-1240 4.3 23:25:44 10° W 23:29:48 53° NNW 23:33:52 10° ENE
BREEZE-M DEB (TANK) 3.2 23:27:22 10° WNW 23:30:52 71° NNE 23:35:40 10° E
SWAS 4.4 23:29:21 10° NNW 23:33:38 68° WSW 23:33:49 67° SW
STARLINK-1114 3.6 23:30:02 10° WNW 23:34:12 82° NNE 23:34:47 64° ESE
Helios 1A 2.8 23:33:57 74° SSE 23:34:20 89° ENE 23:38:33 10° NNW
STARLINK-1216 4.4 23:30:45 10° W 23:34:47 50° NNW 23:38:51 10° ENE
Cosmos 1455 Rocket 4.1 23:31:47 10° NNW 23:35:42 33° W 23:36:14 32° WSW
Cosmos 968 Rocket 3.4 23:31:33 10° NNW 23:36:46 87° ENE 23:38:01 53° SSE
ISS -0.9 23:34:16 10° W 23:34:16 10° W 23:34:16 10° W
Cosmos 1354 Rocket 4.4 23:32:28 10° NNW 23:37:43 60° ENE 23:39:37 38° SE
ATLAS 2AS CENTAUR R/B 3.3 23:35:54 37° SSE 23:38:42 51° ESE 23:46:19 10° NE
NOSS 2-2 (C) 4.2 23:37:49 34° W 23:38:53 44° NW 23:42:49 10° NNE
STARLINK-1130 (DARKSAT) 3.5 23:35:00 10° WNW 23:39:09 87° NNE 23:39:32 73° ESE
Cosmos 1908 4.5 23:36:09 10° N 23:39:35 31° ENE 23:40:02 30° E
Cosmos 2369 Rocket 2.1 23:38:58 44° SSW 23:40:54 86° WNW 23:46:36 10° NNE
STARLINK-1084 3.4 23:39:58 10° WNW 23:44:08 88° SSW 23:44:19 82° SE
Cosmos 1486 Rocket 4.1 23:40:31 10° NNW 23:45:47 63° WSW 23:46:50 51° SSW
Cosmos 1025 Rocket 3.1 23:45:35 57° WSW 23:46:05 63° W 23:50:21 10° N
NOSS 3-2 (A) 4.1 23:38:56 10° NW 23:46:25 67° WSW 23:50:12 35° SSE
STARLINK-1098 3.4 23:44:58 10° WNW 23:49:07 82° SW 23:49:07 82° SW
Cosmos 2315 Rocket 4.2 23:43:32 10° N 23:49:42 64° ENE 23:52:12 37° SE
Cosmos 1943 Rocket 2.7 23:49:05 29° WSW 23:51:42 53° WNW 23:57:12 10° NNE
Helios 1B rocket 3.0 23:48:43 10° NNE 23:52:40 43° E 23:52:51 43° ESE
STARLINK-1123 3.5 23:49:57 10° WNW 23:53:53 74° WSW 23:53:53 74° WSW
SL-8 R/B 3.5 23:50:07 10° WNW 23:54:55 72° SSW 23:55:50 56° SE
Resurs 1-4 Rocket 4.4 23:54:38 10° ENE 23:56:41 12° E 23:58:44 10° ESE
